Regional Weather Roundup
Issued by NWS

Home | Current Version | Previous Version | Graphics & Text | Print | Product List | Glossary On
Versions: 1 2 3 4 5 6 7 8 9 10 11 12 13 14 15 16 17 18 19 20 21 22 23 24 25 26 27 28 29 30 31 32 33 34 35 36 37 38 39 40 41 42 43 44 45 46 47 48 49 50
000
ASUS43 KDTX 271001
RWRMI
MICHIGAN HOURLY REGIONAL WEATHER ROUNDUP
NATIONAL WEATHER SERVICE DETROIT/PONTIAC MI
600 AM EDT WED AUG 27 2014

NOTE: "FAIR" INDICATES FEW OR NO CLOUDS BELOW 12,000 FEET WITH NO
SIGNIFICANT WEATHER AND/OR OBSTRUCTION TO VISIBILITY.

MIZ047>049-052>055-059>063-066>070-074>076-081>083-271100-
SOUTHEAST LOWER MICHIGAN

CITY           SKY/WX    TMP DP  RH WIND       PRES   REMARKS
ADRIAN         CLEAR     65  63  93 CALM      30.10R
ALMA           PTCLDY    59  57  95 N6        30.12F
ANN ARBOR      CLOUDY    67  63  87 N7        30.09R
BAD AXE        CLEAR     54  53  98 CALM      30.13R
CARO           CLEAR     60  58  92 CALM      30.12S
DETROIT CITY   MOCLDY    67  61  81 N3        30.09R
DETROIT        CLOUDY    68  64  87 NE7       30.09R
FLINT          MOCLDY    66  59  78 E6        30.11R
GROSSE ILE     CLOUDY    70  64  83 NE7       30.07R
HILLSDALE      CLEAR     61  61 100 CALM      30.12R FOG
HOWELL         FOG       64  64  99 CALM      30.10S VSB 1

CITY           SKY/WX    TMP DP  RH WIND       PRES   REMARKS
JACKSON        CLOUDY    63  62  97 N3        30.11S
LAMBERTVILLE   MOCLDY    68  64  88 CALM      30.10R
LANSING        MOCLDY    62  60  93 N6        30.12R
LAPEER         CLOUDY    62  56  81 CALM      30.12S
MASON          PTCLDY    61  60  96 NE3       30.11S
MONROE         CLOUDY    68  66  94 CALM      30.07S
MT. CLEMENS    CLOUDY    64  59  82 N7        30.09R
PONTIAC        CLOUDY    65  60  84 NE6       30.11R
PORT HOPE        N/A     63  54  72 CALM      30.10R
PORT HURON     CLOUDY    64  57  77 N3        30.10S
TRI CITIES     CLOUDY    65  60  84 NE5       30.13R
TROY           MOCLDY    66  61  83 NE7       30.12R
SAGINAW HB     CLEAR     61  61 100 NE5       30.11R
$$
MIZ043>046-050>051-056>058-064>065-071>073-077>080-271100-
SOUTHWEST LOWER MICHIGAN

CITY           SKY/WX    TMP DP  RH WIND       PRES   REMARKS
BATTLE CREEK   CLEAR     62  58  86 N3        30.13R
BENTON HARBOR  CLEAR     58  58 100 CALM      30.12R
BIG RAPIDS     MOCLDY    55  55 100 CALM      30.14R
COLDWATER      CLEAR     63  62  97 CALM      30.11S
FREMONT        FAIR      55  55  97 NW3       30.14R
HOLLAND        PTCLDY    60  58  92 NW5       30.14R FOG
GRAND RAPIDS   PTCLDY    60  60 100 CALM      30.12S
IONIA          FAIR      60  59  97 CALM      30.11S
KALAMAZOO      PTCLDY    62  59  90 N3        30.12R
LUDINGTON      CLOUDY    59  58  96 E5        30.15R
MARSHALL       MOCLDY    60  59  96 CALM      30.11S
MOUNT PLEASANT PTCLDY    56  55  97 CALM      30.12S
MUSKEGON       MOCLDY    60  57  89 CALM      30.13R
SOUTH HAVEN    PTCLDY    59  58  97 CALM      30.12R
$$
MIZ016>042-271100-
NORTHERN LOWER MICHIGAN

CITY           SKY/WX    TMP DP  RH WIND       PRES   REMARKS
ALPENA         MOCLDY    54  52  93 W5        30.13S
BEAVER ISLAND  MOCLDY    58  52  80 NW3       30.15S
BELLAIRE       MOCLDY    55  53  95 CALM      30.14F
CADILLAC       CLOUDY    57  56  99 CALM      30.15R
CHARLEVOIX     MOCLDY    56  54  94 CALM      30.17S
FRANKFORT      CLOUDY    61  53  75 CALM      30.15S
GAYLORD        CLOUDY    54  51  90 CALM      30.15S
GRAYLING       CLOUDY    56  56  99 CALM      30.15F
HARBOR SPRINGS MOCLDY    55  52  90 N3        30.14F
HOUGHTON LAKE  CLOUDY    54  53  97 E5        30.15S
MANISTEE       CLOUDY    57  54  88 CALM      30.16R
OSCODA         PTCLDY    53  52  97 CALM      30.13R
PELLSTON       CLOUDY    50  49  96 CALM      30.14S
ROGERS CITY    MOCLDY    54  52  94 W3        30.14S
TRAVERSE CITY  CLOUDY    60  54  80 E3        30.13S
$$
MIZ007>008-015-271100-
EASTERN UPPER MICHIGAN

CITY           SKY/WX    TMP DP  RH WIND       PRES   REMARKS
KINROSS        CLOUDY    50  50 100 W6        30.12S
MACKINAC ISLAN CLOUDY    55  51  86 NW6       30.12S
NEWBERRY       CLOUDY    49  48  97 W6        30.13S
S. S. MARIE    CLOUDY    52  50  93 SW6       30.11R
$$
MIZ004>006-011>014-085-271100-
CENTRAL UPPER MICHIGAN

CITY           SKY/WX    TMP DP  RH WIND       PRES   REMARKS
MANISTIQUE     CLOUDY    52  50  93 W6        30.14S
ESCANABA       MOCLDY    54  48  82 NW6       30.15S
MENOMINEE      MOCLDY    55  52  88 CALM      30.15F
SAWYER-GWINN   LGT RAIN  50  49  93 W3        30.16R
$$
MIZ001>003-009>011-084-271100-
WESTERN UPPER MICHIGAN

CITY           SKY/WX    TMP DP  RH WIND       PRES   REMARKS
IRON MOUNTAIN  RAIN      54  51  90 CALM      30.15F
HOUGHTON       CLOUDY    54  51  90 CALM      30.15R
COPPER HARBOR    N/A     56  49  77 NW5       30.14R
$$

ABBREVIATIONS USED IN REMARKS
   TC - TEMPERATURE IN CELSIUS
  WCI - WIND CHILL INDEX
   HX - HEAT INDEX
  VSB - VISIBILITY



USA.gov is the U.S. government's official web portal to all federal, state and local government web resources and services.